Welcome to the New NWS' Forecast!
Most changes are behind the scenes, but click here for differences you might notice.

Regional Weather Roundup (RWR)

Issued by Cleveland, OH (CLE)

                            
281 
ASUS41 KCLE 201302
RWRCLE
OHIO REGIONAL WEATHER ROUNDUP
NATIONAL WEATHER SERVICE CLEVELAND, OH
900 AM EDT MON AUG 20 2018

NOTE: "FAIR" INDICATES FEW OR NO CLOUDS BELOW 12,000 FEET WITH NO
SIGNIFICANT WEATHER AND/OR OBSTRUCTIONS TO VISIBILITY.

OHZ001>008-015>018-024>027-034-035-043-044-201400-
   NORTHWEST OHIO
  
CITY           SKY/WX    TMP DP  RH WIND       PRES   REMARKS
DEFIANCE       FAIR      65  64  97 E6        30.03R FOG              
FINDLAY        FAIR      68  62  81 E9        30.02R                  
TOLEDO EXPRESS FAIR      69  63  81 E5        30.03S                  
TOLEDO EXEC    FAIR      68  64  87 E6        30.05R                  
LIMA           FAIR      67  63  87 E7        30.02S                  
$$

OHZ009>014-019>023-028>033-038-089-201400-
   NORTHEAST OHIO
  
CITY           SKY/WX    TMP DP  RH WIND       PRES   REMARKS
CLE-HOPKINS    FAIR      68  63  84 CALM      30.08R                  
CLE-LAKEFRONT  FAIR      68  62  81 SE10      30.04R                  
CUY CO. ARPT   SUNNY     68  64  88 SE9       30.06S                  
LORAIN-ELYRIA  FAIR      65  58  78 VRB5      30.06S                  
ASHTABULA      FAIR      66  66 100 SE7       30.08R                  
AKRON-CANTON   FAIR      66  62  87 SE6       30.07R                  
WOOSTER        FAIR      65  63  93 E6        30.07R                  
MANSFIELD      FAIR      68  64  87 E5        30.05F                  
YOUNGSTOWN     FAIR      65  64  97 E7        30.07R                  
$$

OHZ042-051>053-060>062-070>072-077>081-201400-
  SOUTHWEST OHIO
  
CITY           SKY/WX    TMP DP  RH WIND       PRES   REMARKS
CINC-COVINGTON CLOUDY    73  70  90 SE10      29.99R                  
CINC-LUNKEN    PTSUNNY   71  69  93 CALM      29.99S                  
HAMILTON       FAIR      72  69  90 E3        30.00R                  
DAYTON         PTSUNNY   69  64  84 SE9       30.02S                  
WRIGHT-PAT AFB FAIR      70  65  82 E6        30.01S                  
DAYTON GENERAL FAIR      71  64  78 E7        30.00R                  
WILMINGTON     FAIR      67  67 100 E5        30.02R                  
$$

OHZ036-037-039>041-045>050-054>059-063>069-073>076-082>088-201400-
  CENTRAL AND SOUTHEAST OHIO
  
CITY           SKY/WX    TMP DP  RH WIND       PRES   REMARKS
COLUMBUS       PTSUNNY   71  63  75 E5        30.03R                  
OSU AIRPORT    FAIR      69  64  84 E5        30.04R                  
BOLTON FIELD   SUNNY     70  64  83 SE5       30.04R                  
RICKENBACK AFB NOT AVBL                                               
NEWARK         FAIR      66  62  87 E6        30.05R                  
MARION         FAIR      67  63  87 E7        30.05R                  
LANCASTER      FAIR      68  65  90 CALM      30.05R                  
ZANESVILLE     FAIR      65  61  87 E3        30.04R                  
NEW PHILLY     NOT AVBL                                               
$$